Weather Roundup
Issued by NWS Springfield, MO

Home | Current Version | Previous Version | Text Only | Print | Product List | Glossary On
Versions: 1 2 3 4 5 6 7 8 9 10 11 12 13 14 15 16 17 18 19 20 21 22 23 24 25 26 27 28 29 30 31 32 33 34 35 36 37 38 39 40 41 42 43 44 45 46 47 48 49 50
254
NZUS99 KSGF 270457
HRRSGF

HOURLY WEATHER
NATIONAL WEATHER SERVICE SPRINGFIELD MO
1200 AM CDT WED JUL 27 2016

......SGF CWA......

CITY           SKY/WX    TMP DP  RH WIND       PRES   REMARKS
SPRINGFIELD    MOCLDY    74  71  91 CALM      30.00F
JOPLIN         MOCLDY    73  72  96 CALM      29.98F
WEST PLAINS    PTCLDY    73  70  90 NE3       30.03F
ROLLA          CLOUDY    72  71  97 E3        30.00F FOG

......SURROUNDING SGF CWA......

CITY           SKY/WX    TMP DP  RH WIND       PRES   REMARKS
CHANUTE        CLEAR     73  71  93 SE3       29.97F
PARSONS        CLEAR     73  71  93 CALM      29.98F
COFFEYVILLE    CLEAR     73  72  96 CALM      29.96F
EMPORIA        CLEAR     74  70  87 CALM      30.00R
HARRISON AR    CLOUDY    74  73  97 S5        30.00F

......KANSAS AND MISSOURI......

CITY           SKY/WX    TMP DP  RH WIND       PRES   REMARKS
KANSAS CTY INT CLEAR     77  67  71 E6        30.01R
SEDALIA        CLEAR     75  71  87 E5        30.00S
ST JOSEPH      CLEAR     71  66  84 CALM      30.01S
ST LOUIS       MOCLDY    81  72  74 CALM      29.99F
WICHITA        PTCLDY    78  72  81 SE7       29.99R
TOPEKA         CLEAR     74  69  85 CALM      29.99S
OLATHE         CLEAR     74  67  78 NE5       30.00S

......TENNESSEE......

CITY           SKY/WX    TMP DP  RH WIND       PRES   REMARKS
MEMPHIS        NOT AVBL
NASHVILLE      CLOUDY    76  73  91 S3        30.00S

......ARKANSAS.......

CITY           SKY/WX    TMP DP  RH WIND       PRES   REMARKS
FAYETTEVILLE   CLOUDY    71  71 100 CALM      29.99F
FT SMITH       PTCLDY    78  73  84 CALM      29.94S
LITTLE ROCK    PTCLDY    83  74  74 CALM      29.93F

......OKLAHOMA.......

CITY           SKY/WX    TMP DP  RH WIND       PRES   REMARKS
TULSA          MOCLDY    77  74  90 E5        29.94F
PONCA CITY     PTCLDY    78  73  84 SE5       29.95F
MCALESTER      CLEAR     76  73  91 CALM      29.96S FOG
OKLAHOMA CITY  MOCLDY    77  74  90 SE6       29.97F

......IOWA............

CITY           SKY/WX    TMP DP  RH WIND       PRES   REMARKS
DES MOINES     NOT AVBL
QUAD CITIES    CLEAR     70  66  87 CALM      30.01S

......ILLINOIS........

CITY           SKY/WX    TMP DP  RH WIND       PRES   REMARKS
QUINCY         NOT AVBL
CHICAGO        CLEAR     73  64  73 S3        30.01S




USA.gov is the U.S. government's official web portal to all federal, state and local government web resources and services.